Tracy, MN

4:59 PM CDT on August 23, 2017 (GMT -0500)
Tracy

Weather History for KTKC - April, 2013

Change the Weather History Date:

Wednesday, April 3, 2013

  Actual Average (KMML) Record (KMML)
Temperature  
Mean Temperature 40 °F -  
Max Temperature 55 °F 49 °F 81 °F (1963)
Min Temperature 24 °F 29 °F 5 °F (1975)
Degree Days  
Heating Degree Days 26    
Moisture  
Dew Point 26 °F    
Average Humidity 61    
Maximum Humidity 84    
Minimum Humidity 39    
Precipitation  
Precipitation 0.00 in - - ()
Sea Level Pressure  
Sea Level Pressure 30.19 in    
Wind  
Wind Speed 10 mph (South)    
Max Wind Speed 28 mph    
Max Gust Speed 34 mph    
Visibility 10 miles    
Events      
Averages and records for this station are not official NWS values.
T = Trace of Precipitation, MM = Missing Value Source: NWS Daily Summary

Daily Weather History Graph

Daily Weather History Graph

Search for Another Location

Airport or City:

Trip Planner

Search our weather history database for the weather conditions in past years. The results will help you decide how hot, cold, wet, or windy it might be!

Date:

Astronomy

Apr. 03, 2013 Rise Set
Actual Time 6:59 AM CDT 7:52 PM CDT
Civil Twilight 6:30 AM CDT 8:21 PM CDT
Nautical Twilight 5:55 AM CDT 8:57 PM CDT
Astronomical Twilight 5:18 AM CDT 9:33 PM CDT
Moon 2:55 AM CDT (4/3) 12:52 PM CDT (4/3)
Length of Visible Light 13h 51m
Length of Day
12h 52m
Last Quarter, 44% of the Moon is Illuminated
Apr 3
Last Quarter
Apr 10
New
Apr 18
First Quarter
Apr 25
Full
May 2
Last Quarter

Hourly Weather History & Observations

Time (CDT) Temp. Windchill Dew Point Humidity Pressure Visibility Wind Dir Wind Speed Gust Speed Precip Events Conditions
12:18 AM 25.9 °F - 20.3 °F 79% 30.33 in 10.0 mi Calm Calm - N/A   Clear
12:38 AM 25.7 °F - 20.1 °F 79% 30.33 in 10.0 mi Calm Calm - N/A   Clear
12:57 AM 25.3 °F - 20.1 °F 81% 30.33 in 10.0 mi Calm Calm - N/A   Clear
1:18 AM 25.3 °F - 19.8 °F 79% 30.33 in 10.0 mi Calm Calm - N/A   Clear
1:37 AM 25.3 °F - 19.4 °F 78% 30.34 in 10.0 mi Calm Calm - N/A   Clear
1:58 AM 25.2 °F - 19.9 °F 81% 30.33 in 10.0 mi Calm Calm - N/A   Clear
2:18 AM 24.8 °F - 20.1 °F 82% 30.33 in 10.0 mi Calm Calm - N/A   Clear
2:38 AM 24.4 °F - 19.9 °F 83% 30.33 in 10.0 mi Calm Calm - N/A   Clear
2:57 AM 24.1 °F - 19.8 °F 84% 30.33 in 10.0 mi Calm Calm - N/A   Clear
3:17 AM 24.4 °F - 19.4 °F 81% 30.32 in 10.0 mi Calm Calm - N/A   Clear
3:38 AM 24.8 °F 17.9 °F 19.4 °F 80% 30.32 in 10.0 mi SSE 5.8 mph - N/A   Clear
3:58 AM 24.4 °F - 19.4 °F 81% 30.31 in 10.0 mi Calm Calm - N/A   Clear
4:17 AM 24.6 °F 17.7 °F 19.2 °F 80% 30.31 in 10.0 mi SSE 5.8 mph - N/A   Clear
4:37 AM 24.6 °F 15.8 °F 18.7 °F 78% 30.31 in 10.0 mi SSE 8.1 mph - N/A   Clear
4:58 AM 24.6 °F 15.1 °F 18.5 °F 78% 30.31 in 10.0 mi South 9.2 mph - N/A   Clear
5:18 AM 24.8 °F 14.6 °F 17.8 °F 75% 30.31 in 10.0 mi South 10.4 mph - N/A   Clear
5:38 AM 24.8 °F 16.1 °F 17.8 °F 75% 30.31 in 10.0 mi SSE 8.1 mph - N/A   Clear
5:58 AM 24.8 °F 14.6 °F 17.6 °F 74% 30.30 in 10.0 mi South 10.4 mph - N/A   Clear
6:18 AM 24.8 °F 14.6 °F 17.6 °F 74% 30.30 in 10.0 mi South 10.4 mph - N/A   Clear
6:38 AM 24.6 °F 15.1 °F 18.0 °F 76% 30.29 in 10.0 mi South 9.2 mph - N/A   Clear
6:57 AM 24.6 °F 15.1 °F 18.1 °F 76% 30.29 in 10.0 mi South 9.2 mph - N/A   Clear
7:18 AM 24.8 °F 15.3 °F 18.5 °F 77% 30.30 in 10.0 mi South 9.2 mph - N/A   Clear
7:38 AM 25.9 °F 14.8 °F 19.0 °F 75% 30.30 in 10.0 mi South 12.7 mph - N/A   Clear
7:57 AM 26.8 °F 14.9 °F 19.4 °F 74% 30.29 in 10.0 mi South 15.0 mph - N/A   Clear
8:17 AM 28.2 °F 17.2 °F 20.3 °F 72% 30.28 in 10.0 mi South 13.8 mph - N/A   Clear
8:38 AM 30.0 °F 19.1 °F 20.7 °F 68% 30.28 in 10.0 mi South 15.0 mph 19.6 mph N/A   Clear
8:58 AM 31.3 °F 19.9 °F 21.0 °F 66% 30.27 in 10.0 mi South 17.3 mph 26.5 mph N/A   Clear
9:18 AM 32.0 °F 20.1 °F 21.9 °F 66% 30.27 in 10.0 mi South 19.6 mph 25.3 mph N/A   Clear
9:37 AM 33.3 °F 23.2 °F 23.5 °F 68% 30.26 in 10.0 mi South 15.0 mph 21.9 mph N/A   Clear
9:58 AM 34.7 °F 25.5 °F 23.9 °F 65% 30.25 in 10.0 mi South 13.8 mph 26.5 mph N/A   Clear
10:18 AM 36.1 °F 26.2 °F 24.3 °F 62% 30.25 in 10.0 mi South 17.3 mph 23.0 mph N/A   Clear
10:37 AM 37.8 °F 28.3 °F 24.6 °F 59% 30.23 in 10.0 mi South 17.3 mph 24.2 mph N/A   Clear
10:57 AM 39.4 °F 29.8 °F 25.3 °F 57% 30.23 in 10.0 mi South 19.6 mph 24.2 mph N/A   Clear
11:18 AM 40.3 °F 30.7 °F 25.0 °F 54% 30.22 in 10.0 mi South 20.7 mph 27.6 mph N/A   Clear
11:37 AM 41.0 °F 32.8 °F 26.2 °F 56% 30.21 in 10.0 mi South 16.1 mph 25.3 mph N/A   Clear
11:57 AM 42.1 °F 33.9 °F 26.6 °F 54% 30.21 in 10.0 mi South 17.3 mph 25.3 mph N/A   Clear
12:18 PM 43.0 °F 34.8 °F 26.8 °F 53% 30.21 in 10.0 mi South 18.4 mph 29.9 mph N/A   Clear
12:38 PM 44.4 °F 37.5 °F 27.7 °F 52% 30.20 in 10.0 mi South 15.0 mph 24.2 mph N/A   Clear
12:58 PM 46.0 °F 38.8 °F 28.0 °F 50% 30.19 in 10.0 mi South 18.4 mph 27.6 mph N/A   Clear
1:18 PM 46.9 °F - 29.1 °F 50% 30.18 in 10.0 mi South 19.6 mph 26.5 mph N/A   Clear
1:37 PM 47.8 °F - 29.7 °F 49% 30.17 in 10.0 mi South 21.9 mph 28.8 mph N/A   Clear
1:58 PM 48.4 °F - 30.4 °F 50% 30.16 in 10.0 mi South 19.6 mph 27.6 mph N/A   Clear
2:18 PM 49.3 °F - 30.7 °F 49% 30.15 in 10.0 mi South 20.7 mph 29.9 mph N/A   Clear
2:38 PM 50.5 °F - 30.7 °F 47% 30.14 in 10.0 mi SSW 20.7 mph 28.8 mph N/A   Clear
2:58 PM 51.4 °F - 31.1 °F 46% 30.13 in 10.0 mi South 18.4 mph 29.9 mph N/A   Clear
3:18 PM 52.7 °F - 30.6 °F 43% 30.12 in 10.0 mi SSW 20.7 mph 31.1 mph N/A   Clear
3:37 PM 54.1 °F - 31.3 °F 42% 30.11 in 10.0 mi South 19.6 mph 31.1 mph N/A   Clear
3:58 PM 54.5 °F - 31.1 °F 41% 30.10 in 10.0 mi SSW 18.4 mph 29.9 mph N/A   Clear
4:18 PM 54.5 °F - 31.1 °F 41% 30.10 in 10.0 mi SSW 23.0 mph 32.2 mph N/A   Clear
4:38 PM 55.2 °F - 31.5 °F 40% 30.09 in 10.0 mi SSW 23.0 mph 29.9 mph N/A   Clear
4:58 PM 55.4 °F - 31.3 °F 40% 30.08 in 10.0 mi South 19.6 mph 28.8 mph N/A   Clear
5:17 PM 55.6 °F - 31.3 °F 40% 30.08 in 10.0 mi SSW 17.3 mph 31.1 mph N/A   Clear
5:37 PM 55.6 °F - 30.7 °F 39% 30.07 in 10.0 mi SSW 19.6 mph 31.1 mph N/A   Clear
5:57 PM 55.4 °F - 31.1 °F 40% 30.06 in 10.0 mi SSW 17.3 mph 27.6 mph N/A   Clear
6:18 PM 55.4 °F - 31.3 °F 40% 30.05 in 10.0 mi South 17.3 mph 26.5 mph N/A   Clear
6:38 PM 54.9 °F - 31.1 °F 40% 30.05 in 10.0 mi South 13.8 mph 27.6 mph N/A   Clear
6:57 PM 54.0 °F - 31.8 °F 43% 30.04 in 10.0 mi South 15.0 mph 26.5 mph N/A   Clear
7:17 PM 52.7 °F - 32.0 °F 45% 30.04 in 10.0 mi South 16.1 mph 23.0 mph N/A   Clear
7:38 PM 51.3 °F - 32.0 °F 48% 30.04 in 10.0 mi South 13.8 mph 20.7 mph N/A   Clear
7:57 PM 50.0 °F - 32.0 °F 50% 30.03 in 10.0 mi South 15.0 mph 21.9 mph N/A   Clear
8:17 PM 48.6 °F - 32.0 °F 53% 30.03 in 10.0 mi South 19.6 mph 25.3 mph N/A   Clear
8:37 PM 47.3 °F - 32.0 °F 55% 30.02 in 10.0 mi South 18.4 mph 23.0 mph N/A   Clear
8:58 PM 46.4 °F 39.0 °F 31.8 °F 57% 30.03 in 10.0 mi SSW 19.6 mph 24.2 mph N/A   Clear
9:18 PM 45.5 °F 38.1 °F 31.6 °F 58% 30.03 in 10.0 mi SSW 18.4 mph 26.5 mph N/A   Clear
9:37 PM 44.8 °F 36.6 °F 31.1 °F 59% 30.03 in 10.0 mi SSW 20.7 mph 28.8 mph N/A   Clear
9:57 PM 44.6 °F 35.7 °F 30.7 °F 58% 30.02 in 10.0 mi SSW 24.2 mph 29.9 mph N/A   Clear
10:17 PM 44.4 °F 35.5 °F 30.2 °F 57% 30.02 in 10.0 mi SSW 24.2 mph 31.1 mph N/A   Clear
10:37 PM 44.6 °F 36.1 °F 29.7 °F 56% 30.02 in 10.0 mi SSW 21.9 mph 31.1 mph N/A   Clear
10:57 PM 44.6 °F 35.9 °F 29.3 °F 55% 30.01 in 10.0 mi SSW 23.0 mph 31.1 mph N/A   Clear
11:18 PM 45.3 °F 36.9 °F 29.1 °F 53% 30.01 in 10.0 mi SSW 23.0 mph 31.1 mph N/A   Clear
11:38 PM 45.0 °F 35.6 °F 28.9 °F 53% 30.01 in 10.0 mi SSW 27.6 mph 34.5 mph N/A   Scattered Clouds
11:57 PM 44.2 °F 35.0 °F 28.8 °F 55% 30.01 in 10.0 mi SSW 25.3 mph 34.5 mph N/A   Scattered Clouds